Simultaneous Nadir Overpasses (SNOs) Predictions

Prediction of SNOs between FY3D and AQUA Satellite Orbit:

Table of predicted SNOs for the next 14.0 days since TLE Epoch: 7/31/2021
Index Date (FY3D) Time (FY3D) Lat,Lon (FY3D) SZA (FY3D ) Date (AQUA) Time (AQUA) Lat,Lon (AQUA) SZA (AQUA ) Distance(km) Time Diff (sec)
1 08/02/2021 17:42:26 62.17, -77.75 44.68 08/02/2021 17:43:16 62.16, -77.72 44.69 1.37 50
2 08/02/2021 18:30:38 -53.65, 95.08 143.03 08/02/2021 18:30:14 -53.65, 95.06 143.05 1.28 24
3 08/05/2021 09:59:03 63.26, 37.28 46.43 08/05/2021 10:00:03 63.25, 37.30 46.44 1.35 60
4 08/05/2021 10:47:45 -56.46,-150.54 139.83 08/05/2021 10:47:30 -56.45,-150.52 139.85 1.65 15
5 08/08/2021 02:15:37 64.12, 152.44 48.01 08/08/2021 02:16:47 64.12, 152.46 48.02 0.90 70
6 08/08/2021 03:04:24 -57.62, -35.30 138.03 08/08/2021 03:04:19 -57.62, -35.30 138.04 0.40 5
7 08/10/2021 18:36:31 78.03,-120.79 63.66 08/10/2021 18:37:44 78.30,-119.42 63.77 42.96 73
8 08/10/2021 19:21:00 -58.61, 80.00 136.35 08/10/2021 19:21:05 -58.62, 79.98 136.35 1.13 5
9 08/10/2021 20:09:26 50.64,-108.31 36.64 08/10/2021 20:08:18 50.64,-108.29 36.58 1.74 68
10 08/13/2021 11:37:56 -60.72,-165.53 133.59 08/13/2021 11:38:10 -60.72,-165.51 133.59 1.45 14



Historial Predications of SNOs between FY3D and AQUA
